TimePST,TemperatureF,Dew PointF,Humidity,Sea Level PressureIn,VisibilityMPH,Wind Direction,Wind SpeedMPH,Gust SpeedMPH,PrecipitationIn,Events,Conditions,WindDirDegrees,DateUTC
12:53 AM,43.0,41.0,93,30.24,10.0,SSW,9.2,-,0.01,,Overcast,200,2013-01-29 08:53:00
1:53 AM,43.0,42.1,97,30.25,10.0,SSW,6.9,-,0.00,Rain,Light Rain,200,2013-01-29 09:53:00
2:53 AM,44.1,42.1,93,30.26,10.0,SSW,5.8,-,0.00,,Overcast,210,2013-01-29 10:53:00
3:53 AM,44.1,42.1,93,30.27,10.0,SSW,6.9,-,0.00,,Overcast,210,2013-01-29 11:53:00
4:53 AM,45.0,42.1,90,30.28,10.0,SSW,5.8,-,N/A,,Overcast,210,2013-01-29 12:53:00
5:53 AM,45.0,42.1,90,30.29,10.0,SSW,8.1,-,N/A,,Overcast,200,2013-01-29 13:53:00
6:53 AM,44.1,42.1,93,30.32,10.0,South,9.2,-,0.00,Rain,Light Rain,190,2013-01-29 14:53:00
7:53 AM,44.1,43.0,96,30.34,10.0,South,10.4,-,0.01,,Overcast,190,2013-01-29 15:53:00
8:24 AM,44.6,42.8,93,30.36,10.0,South,10.4,-,0.01,Rain,Light Rain,190,2013-01-29 16:24:00
8:53 AM,44.1,43.0,96,30.37,9.0,SSW,11.5,-,0.03,Rain,Light Rain,200,2013-01-29 16:53:00
9:53 AM,44.1,43.0,96,30.40,10.0,SSW,9.2,-,0.02,Rain,Light Rain,200,2013-01-29 17:53:00
10:38 AM,44.6,44.6,100,30.41,2.5,SSW,9.2,-,0.01,Rain,Light Rain,200,2013-01-29 18:38:00
10:48 AM,44.6,44.6,100,30.41,4.0,SSW,11.5,-,0.01,Rain,Light Rain,200,2013-01-29 18:48:00
10:53 AM,45.0,44.1,97,30.42,8.0,SSW,9.2,18.4,0.01,,Overcast,200,2013-01-29 18:53:00
11:53 AM,46.0,44.1,93,30.44,7.0,SSW,8.1,-,N/A,,Overcast,200,2013-01-29 19:53:00
12:15 PM,46.4,44.6,93,30.44,10.0,SSW,10.4,-,N/A,,Overcast,200,2013-01-29 20:15:00
12:37 PM,46.4,44.6,93,30.43,10.0,SSW,8.1,18.4,N/A,,Overcast,200,2013-01-29 20:37:00
12:53 PM,46.9,44.1,90,30.44,10.0,SSW,6.9,-,N/A,,Overcast,200,2013-01-29 20:53:00
1:07 PM,46.4,44.6,93,30.44,10.0,SSW,10.4,18.4,N/A,,Overcast,200,2013-01-29 21:07:00
1:53 PM,46.9,44.1,90,30.45,10.0,SSW,8.1,-,N/A,,Overcast,200,2013-01-29 21:53:00
2:20 PM,46.4,44.6,93,30.45,10.0,South,10.4,-,N/A,,Overcast,190,2013-01-29 22:20:00
2:30 PM,46.4,44.6,93,30.45,10.0,South,10.4,-,N/A,,Overcast,190,2013-01-29 22:30:00
2:48 PM,46.4,44.6,93,30.45,9.0,South,11.5,-,N/A,,Overcast,190,2013-01-29 22:48:00
2:53 PM,46.0,44.1,93,30.45,10.0,South,11.5,-,N/A,,Overcast,190,2013-01-29 22:53:00
3:29 PM,46.4,44.6,93,30.46,10.0,South,10.4,-,N/A,,Overcast,190,2013-01-29 23:29:00
3:53 PM,46.0,44.1,93,30.47,10.0,South,10.4,-,N/A,,Overcast,190,2013-01-29 23:53:00
4:18 PM,46.4,44.6,93,30.47,10.0,South,11.5,-,N/A,,Overcast,190,2013-01-30 00:18:00
4:53 PM,46.0,45.0,96,30.47,7.0,South,10.4,-,N/A,,Overcast,190,2013-01-30 00:53:00
5:53 PM,46.0,44.1,93,30.49,10.0,South,9.2,-,N/A,,Overcast,190,2013-01-30 01:53:00
6:53 PM,45.0,43.0,93,30.49,10.0,South,9.2,-,N/A,,Overcast,190,2013-01-30 02:53:00
7:53 PM,45.0,43.0,93,30.50,10.0,South,8.1,-,N/A,,Overcast,190,2013-01-30 03:53:00
8:53 PM,44.1,42.1,93,30.50,10.0,SSW,6.9,-,N/A,,Mostly Cloudy,200,2013-01-30 04:53:00
10:53 PM,44.1,41.0,89,30.48,10.0,SSW,8.1,-,N/A,,Overcast,200,2013-01-30 06:53:00
11:53 PM,44.1,41.0,89,30.48,10.0,South,12.7,-,N/A,,Overcast,190,2013-01-30 07:53:00